EN

Hourly Weather Bartoszewo

Today, 19 January, Tuesday

Time Temperature Precipitation Wind Pressure Humidity
00:00 -14°C° 0 mm 3 mps 753 mmHg 93%
01:00 -14°C° 0 mm 3 mps 753 mmHg 93%
02:00 -13°C° 0.1 mm 3 mps 752 mmHg 94%
03:00 -12°C° 0.1 mm 4 mps 752 mmHg 94%
04:00 -11°C° 0.1 mm 4 mps 751 mmHg 95%
05:00 -10°C° 0.3 mm 4 mps 751 mmHg 95%
06:00 -9°C° 0.3 mm 4 mps 751 mmHg 95%
07:00 -8°C° 0.3 mm 3 mps 750 mmHg 96%
08:00 -7°C° 0.3 mm 3 mps 750 mmHg 96%
09:00 -5°C° 0.3 mm 3 mps 750 mmHg 97%
10:00 -3°C° 0.3 mm 2 mps 750 mmHg 97%
11:00 -2°C° 0.1 mm 3 mps 750 mmHg 98%
12:00 -1°C° 0.1 mm 3 mps 749 mmHg 98%
13:00 -1°C° 0.1 mm 3 mps 749 mmHg 99%
14:00 -1°C° 0.1 mm 3 mps 748 mmHg 98%
15:00 0°C° 0.1 mm 3 mps 748 mmHg 98%
16:00 0°C° 0.1 mm 3 mps 748 mmHg 98%
17:00 -2°C° 0 mm 4 mps 747 mmHg 97%
18:00 -2°C° 0 mm 4 mps 747 mmHg 97%
19:00 -2°C° 0 mm 4 mps 747 mmHg 97%
20:00 -2°C° 0 mm 4 mps 747 mmHg 97%
21:00 -2°C° 0 mm 4 mps 746 mmHg 96%
22:00 -2°C° 0 mm 4 mps 746 mmHg 96%
23:00 -2°C° 0.1 mm 4 mps 745 mmHg 96%

Tomorrow, 20 January, Wednesday

Time Temperature Precipitation Wind Pressure Humidity
00:00 -2°C° 0.1 mm 4 mps 745 mmHg 97%
01:00 -2°C° 0.1 mm 5 mps 745 mmHg 97%
02:00 -2°C° 0.5 mm 4 mps 744 mmHg 98%
03:00 -1°C° 0.5 mm 4 mps 744 mmHg 98%
04:00 -1°C° 0.5 mm 4 mps 744 mmHg 98%
05:00 -1°C° 0.2 mm 4 mps 744 mmHg 98%
06:00 0°C° 0.2 mm 5 mps 744 mmHg 99%
07:00 0°C° 0.2 mm 5 mps 744 mmHg 99%
08:00 0°C° 0 mm 5 mps 744 mmHg 98%
09:00 0°C° 0 mm 5 mps 744 mmHg 98%
10:00 -1°C° 0 mm 5 mps 744 mmHg 98%
11:00 0°C° 0 mm 5 mps 744 mmHg 97%
12:00 0°C° 0 mm 5 mps 744 mmHg 97%
13:00 0°C° 0 mm 5 mps 744 mmHg 96%
14:00 0°C° 0 mm 5 mps 744 mmHg 94%
15:00 0°C° 0 mm 5 mps 744 mmHg 92%
16:00 0°C° 0 mm 5 mps 744 mmHg 89%
17:00 0°C° 0 mm 5 mps 744 mmHg 90%
18:00 0°C° 0 mm 5 mps 744 mmHg 90%
19:00 0°C° 0 mm 5 mps 744 mmHg 90%
20:00 0°C° 0 mm 5 mps 744 mmHg 89%
21:00 0°C° 0 mm 5 mps 744 mmHg 88%
22:00 -1°C° 0 mm 4 mps 744 mmHg 87%
23:00 -1°C° 0 mm 4 mps 744 mmHg 86%

Day after tomorrow, 21 January, Thursday

Time Temperature Precipitation Wind Pressure Humidity
00:00 -1°C° 0 mm 4 mps 744 mmHg 86%
01:00 -2°C° 0 mm 4 mps 744 mmHg 85%
02:00 -1°C° 0 mm 4 mps 744 mmHg 85%
03:00 -1°C° 0 mm 4 mps 743 mmHg 85%
04:00 -1°C° 0 mm 4 mps 743 mmHg 84%
05:00 -1°C° 0 mm 5 mps 743 mmHg 83%
06:00 -1°C° 0 mm 5 mps 743 mmHg 81%
07:00 -1°C° 0 mm 5 mps 743 mmHg 80%
08:00 -1°C° 0 mm 5 mps 743 mmHg 82%
09:00 0°C° 0 mm 5 mps 743 mmHg 85%
10:00 0°C° 0 mm 5 mps 743 mmHg 87%
11:00 0°C° 0 mm 5 mps 743 mmHg 90%
12:00 +1°C° 0 mm 5 mps 743 mmHg 92%
13:00 +1°C° 0 mm 6 mps 743 mmHg 94%
14:00 +1°C° 0 mm 5 mps 742 mmHg 93%
15:00 0°C° 0 mm 5 mps 742 mmHg 93%
16:00 0°C° 0 mm 4 mps 741 mmHg 92%
17:00 0°C° 0 mm 4 mps 741 mmHg 92%
18:00 -1°C° 0 mm 4 mps 741 mmHg 92%
19:00 -1°C° 0 mm 4 mps 741 mmHg 92%
20:00 -1°C° 0 mm 4 mps 741 mmHg 92%
21:00 -1°C° 0 mm 4 mps 741 mmHg 91%
22:00 -1°C° 0 mm 4 mps 741 mmHg 91%
23:00 -1°C° 0 mm 4 mps 741 mmHg 91%

22 January, Friday

Time Temperature Precipitation Wind Pressure Humidity
00:00 -1°C° 0 mm 4 mps 741 mmHg 90%
01:00 -1°C° 0 mm 4 mps 740 mmHg 89%
02:00 -1°C° 0 mm 4 mps 740 mmHg 88%
03:00 -1°C° 0 mm 4 mps 740 mmHg 87%
04:00 -1°C° 0 mm 4 mps 739 mmHg 86%
05:00 -1°C° 0 mm 4 mps 739 mmHg 87%
06:00 -1°C° 0 mm 4 mps 739 mmHg 88%
07:00 0°C° 0 mm 4 mps 738 mmHg 89%
08:00 0°C° 0 mm 4 mps 738 mmHg 90%
09:00 +1°C° 0 mm 5 mps 737 mmHg 91%
10:00 +1°C° 0 mm 5 mps 737 mmHg 92%
11:00 +1°C° 0 mm 5 mps 737 mmHg 93%
12:00 +1°C° 0 mm 4 mps 736 mmHg 95%
13:00 +1°C° 0 mm 4 mps 736 mmHg 96%
14:00 +1°C° 0 mm 4 mps 736 mmHg 96%
15:00 +1°C° 0 mm 3 mps 737 mmHg 96%
16:00 +1°C° 0 mm 3 mps 737 mmHg 95%
17:00 +1°C° 0.1 mm 3 mps 737 mmHg 95%
18:00 +1°C° 0.1 mm 3 mps 738 mmHg 95%
19:00 +1°C° 0.1 mm 3 mps 739 mmHg 95%
20:00 +1°C° 0 mm 3 mps 739 mmHg 94%
21:00 0°C° 0 mm 3 mps 740 mmHg 93%
22:00 0°C° 0 mm 3 mps 740 mmHg 92%
23:00 +1°C° 0 mm 2 mps 741 mmHg 91%

23 January, Saturday

Time Temperature Precipitation Wind Pressure Humidity
00:00 +1°C° 0 mm 2 mps 741 mmHg 90%
01:00 +1°C° 0 mm 2 mps 741 mmHg 89%
02:00 -1°C° 0 mm 2 mps 741 mmHg 89%
03:00 -1°C° 0 mm 2 mps 741 mmHg 88%
04:00 -1°C° 0 mm 2 mps 742 mmHg 87%
05:00 -1°C° 0 mm 2 mps 742 mmHg 88%
06:00 -1°C° 0 mm 2 mps 742 mmHg 88%
07:00 -1°C° 0 mm 2 mps 742 mmHg 88%
08:00 -1°C° 0 mm 2 mps 743 mmHg 88%
09:00 -1°C° 0 mm 2 mps 743 mmHg 88%
10:00 +1°C° 0 mm 2 mps 743 mmHg 88%
11:00 +1°C° 0 mm 2 mps 743 mmHg 89%
12:00 +1°C° 0 mm 2 mps 743 mmHg 90%
13:00 +1°C° 0 mm 2 mps 743 mmHg 90%
14:00 +1°C° 0 mm 2 mps 743 mmHg 91%
15:00 -1°C° 0 mm 2 mps 743 mmHg 92%
16:00 -1°C° 0 mm 2 mps 742 mmHg 93%
17:00 -1°C° 0 mm 2 mps 742 mmHg 93%
18:00 -1°C° 0 mm 2 mps 742 mmHg 93%
19:00 -2°C° 0 mm 2 mps 742 mmHg 93%
20:00 -2°C° 0 mm 3 mps 742 mmHg 92%
21:00 -2°C° 0 mm 3 mps 741 mmHg 92%
22:00 -2°C° 0 mm 3 mps 741 mmHg 91%
23:00 -3°C° 0 mm 4 mps 741 mmHg 91%

24 January, Sunday

Time Temperature Precipitation Wind Pressure Humidity
00:00 -3°C° 0 mm 4 mps 740 mmHg 90%
01:00 -3°C° 0 mm 4 mps 740 mmHg 89%
02:00 -4°C° 0 mm 5 mps 740 mmHg 89%
03:00 -4°C° 0 mm 5 mps 739 mmHg 89%
04:00 -4°C° 0 mm 5 mps 739 mmHg 89%
05:00 -4°C° 0 mm 5 mps 739 mmHg 88%
06:00 -2°C° 0 mm 5 mps 738 mmHg 88%
07:00 -2°C° 0 mm 5 mps 738 mmHg 87%
08:00 -2°C° 0 mm 5 mps 738 mmHg 86%
09:00 -2°C° 0 mm 5 mps 738 mmHg 85%
10:00 -1°C° 0 mm 5 mps 738 mmHg 83%
11:00 -1°C° 0 mm 5 mps 738 mmHg 82%
12:00 0°C° 0 mm 5 mps 738 mmHg 80%
13:00 0°C° 0 mm 5 mps 737 mmHg 78%
14:00 0°C° 0 mm 5 mps 737 mmHg 80%
15:00 -1°C° 0 mm 5 mps 737 mmHg 82%
16:00 -1°C° 0 mm 4 mps 737 mmHg 84%
17:00 -1°C° 0 mm 5 mps 738 mmHg 87%
18:00 -1°C° 0 mm 5 mps 738 mmHg 91%
19:00 -1°C° 0 mm 5 mps 738 mmHg 94%
20:00 -1°C° 0.1 mm 5 mps 738 mmHg 95%
21:00 -2°C° 0.1 mm 5 mps 738 mmHg 96%
22:00 -2°C° 0.1 mm 5 mps 738 mmHg 96%
23:00 -2°C° 0.2 mm 5 mps 739 mmHg 96%
Show more

We Need Your Consent

Meteoprog and our Service Providers may store and access personal data such as cookies, device identifiers or other similar technologies on your device and process such data to personalise content and ads, as well as provide social media features and to analyse the traffic.

  • Store and/or access information on your device

    Cookies, device identifiers or other information can be stored or accessed on your device for the purposes indicated above.

  • Personalised ads and content, ad and content measurement, audience insights, and products development

    Ads and content can be personalised based on a profile. More data can be added to better personalise ads and content. Ad and content performance can be measured. Insights about the audience who saw the ads and content can be derived. Such data can be used to develop or improve user’s experience, systems and software.

By clicking ‘I Agree’ you will allow the use of indicated cookies, device identifiers, web beacons or other similar technologies. Your settings can be changed in the browser on your device.

For certain purposes, legitimate interests may be relied on, rather than consent. You can read more about this in our Privacy and Cookie Policy.